Regional Weather Roundup
Issued by NWS

Home | Current Version | Previous Version | Graphics & Text | Print | Product List | Glossary On
Versions: 1 2 3 4 5 6 7 8 9 10 11 12 13 14 15 16 17 18 19 20 21 22 23 24 25 26 27 28 29 30 31 32 33 34 35 36 37 38 39 40 41 42 43 44 45 46 47 48 49 50
000
ASUS45 KBOU 261107
RWRCO

WEATHER ROUNDUP FOR COLORADO
NATIONAL WEATHER SERVICE DENVER/BOULDER CO
500 AM MDT TUE MAY 26 2015

NOTE: "FAIR" INDICATES FEW OR NO CLOUDS BELOW 12000 FEET WITH NO
SIGNIFICANT WEATHER AND/OR OBSTRUCTIONS TO VISIBILITY.

COZ001>005-013-030-031-261200-
...NORTHWEST COLORADO...

CITY           SKY/WX    TMP DP  RH WIND       PRES   REMARKS
CRAIG          CLOUDY    38  37  97 W3        30.09R
HAYDEN         MOCLDY    41  36  81 SE8       30.09S
MEEKER         CLOUDY    42  39  89 NE5       30.09R
MOUNT WERNER   NOT AVBL
STEAMBOAT SPGS MOCLDY    38  37  96 CALM      30.10S
WALDEN         CLOUDY    36  34  93 CALM      30.09R VSB 3/4
$$

COZ006>008-011-261200-
...WEST CENTRAL VALLEYS...

CITY           SKY/WX    TMP DP  RH WIND       PRES   REMARKS
GRAND JUNCTION CLEAR     48  45  89 E3        30.03S
MONTROSE       PTCLDY    43  39  86 S7        30.11R
EAGLE          CLOUDY    45  43  93 CALM      30.14R
RIFLE          CLOUDY    44  41  89 E3        30.09R
DELTA          CLEAR     47  42  85 MISG      30.08R
NUCLA          CLEAR     41  37  87 SE7       30.13S
$$

COZ017>023-064>068-261200-
...SOUTHWEST COLORADO...

CITY           SKY/WX    TMP DP  RH WIND       PRES   REMARKS
DURANGO        CLEAR     34  33  96 N3        30.14R
CORTEZ         PTCLDY    38  37  97 CALM      30.11R
PAGOSA SPRINGS CLEAR     36  36 100 CALM      30.17S
TELLURIDE      MOCLDY    36  34  94 SE5       30.24R
WOLF CREEK PAS NOT AVBL
$$

COZ009-010-012-014-032>034-037-058>063-261200-
...CENTRAL COLORADO...

CITY           SKY/WX    TMP DP  RH WIND       PRES   REMARKS
ASPEN          CLOUDY    39  37  92 CALM      30.14S
BUENA VISTA    PTCLDY    38  34  84 CALM      30.14R
COPPER MTN     CLOUDY    34  30  86 W10G21    30.26S WCI  26
BERTHOUD PASS  CLOUDY    27  18  69 NW23G33   30.25S WCI  12
COTTONWOOD PAS CLOUDY    43  30  61 NW8       30.19S
GUNNISON       MOCLDY    39  34  81 N3        30.19R
KREMMLING      CLOUDY    39  36  87 CALM      30.14S
LEADVILLE      CLOUDY    35  32  88 N8        30.18S WCI  29
MONARCH PASS   CLOUDY    30  28  93 MISG      30.36S
SALIDA         PTCLDY    41  35  77 N3        30.19S
SUNLIGHT       CLOUDY    36  36 100 CALM      30.27R
WILKERSON PASS CLEAR     32  28  86 W7        30.24S WCI  26
$$

COZ069>075-261200-
...SAN LUIS VALLEY/SANGRE DE CRISTO MOUNTAINS...

CITY           SKY/WX    TMP DP  RH WIND       PRES   REMARKS
ALAMOSA        CLEAR     34  31  88 SW6       30.13R WCI  29
LA VETA PASS   CLEAR    N/A N/A N/A MISG      30.19R
SAGUACHE       PTCLDY    37  34  87 N7        30.15R
$$

COZ035-036-038>040-261200-
...NORTHERN COLORADO FRONT RANGE...

CITY           SKY/WX    TMP DP  RH WIND       PRES   REMARKS
DENVER INTL AP PTCLDY    47  42  83 SW6       30.02R
DMNS CITY PARK   N/A     46  44  93 S5        30.01S
AURORA         PTCLDY    46  42  86 S8        30.03R
FRONT RANGE AP PTCLDY    46  43  87 SW3       30.03R
ERIE MUNI ARPT PTCLDY    42  41  99 CALM      30.01S
BOULDER MUN AP PTCLDY    45  43  93 CALM      30.01S
CENTENNIAL     PTCLDY    42  41  96 SE5       30.03R
BROOMFIELD     PTCLDY    46  41  81 CALM      30.02S
FORT COLLINS   PTCLDY    46  45  93 N5        30.03R
LONGMONT       MOCLDY    45  41  87 W3        30.03S
$$

COZ041-046-047-076>085-087-088-261200-
...PIKES PEAK/PALMER DIVIDE AND SOUTHERN FOOTHILLS...

CITY           SKY/WX    TMP DP  RH WIND       PRES   REMARKS
COLO. SPRINGS  PTCLDY    42  40  92 N8        30.06R
A. F. ACADEMY  CLEAR     38  38  99 N8        30.06R
ELLICOTT       NOT AVBL
FALCON         CLEAR     40  37  90 NW6       30.08R
FORT CARSON    CLEAR     42  39  90 NW7       30.04
LIMON          MOCLDY    45  42  89 W6        30.01S
MONUMENT HILL  NOT AVBL
TRINIDAD       CLEAR     42  39  89 W8        30.05R
$$

COZ042>045-048>051-090-091-261200-
...NORTHEAST COLORADO...

CITY           SKY/WX    TMP DP  RH WIND       PRES   REMARKS
GREELEY ARPT   CLOUDY    46  45  93 CALM      30.01R
AKRON          MOCLDY    45  45 100 NW9       29.98S
BURLINGTON     CLEAR     46  42  86 NW9       29.97R
WRAY           PTCLDY   N/A N/A N/A W5        29.95R
STERLING       CLOUDY    48  46  93 CALM      29.96S
HOLYOKE        NOT AVBL
FORT MORGAN    MOCLDY    47  43  85 NW8       30.00R
$$

COZ086-089-092>099-261200-
...SOUTHEAST COLORADO...

CITY           SKY/WX    TMP DP  RH WIND       PRES   REMARKS
PUEBLO         CLEAR     46  44  93 SW6       30.01R
LA JUNTA       MOCLDY    51  47  86 SW10      29.99R
LAMAR          MOCLDY    50  49  96 SW3       29.95S
SPRINGFIELD      N/A     47  45  93 NW8       29.99R
$$



USA.gov is the U.S. government's official web portal to all federal, state and local government web resources and services.